Location: Borovka
(49.7741°N, 14.5280°E)
Time: 16:54:13
(UTC+00:00)

Cosmos 1954 Rocket - Pass Details

Date: 17 November 2025
Orbit: 749 x 776 km, 74.0° (Epoch: 12 December)

Event Time Altitude Azimuth Distance (km) Brightness Sun altitude
Rises 17:04:31 0° 184° (S) 3,237 7.4 -17.3°
Reaches altitude 10° 17:06:57 10° 179° (S) 2,312 6.6 -17.7°
Maximum altitude 17:11:59 48° 106° (ESE) 1,001 4.2 -18.5°
Enters shadow 17:14:07 31° 51° (NE) 1,340 4.8 -18.8°
